User: anonymous   Login
Location: Unspecified
(0.0000°N, 0.0000°E)
Time: 01:07:27
(UTC+00:00)
Language:

TBA - TO BE ASSIGNED - Orbit

View from above orbital plane
View from above orbital plane
View from above satellite
View from above satellite

Ground track
Ground track

The orbit is defined by the following mean orbital elements,

1 67678U          26145.60363199 +.00000000 +00000-0 +42056-3 0 00002
2 67678  96.6222 209.6446 0017584 207.5920 152.4389 15.24794618    03
Epoch (UTC): 25 May 2026 14:29:13
Eccentricity: 0.0017584
inclination: 96.6222°
perigee height: 479 km
apogee height: 503 km
right ascension of ascending node: 209.6446°
argument of perigee: 207.5920°
revolutions per day: 15.24794618
mean anomaly at epoch: 152.4389°

The dashed part of the orbit path shows where the satellite is in the earth's shadow,  

DLR